Alexandria, Egypt

12:25 AM EET on August 28, 2016 (GMT +0200)
Alexandria International

Weather History for HEAX - August, 2013

Change the Weather History Date:

Tuesday, August 13, 2013

  Actual Average Record
Temperature  
Mean Temperature 82 °F -  
Max Temperature 88 °F 84 °F 95 °F (2002)
Min Temperature 77 °F 72 °F 68 °F (1999)
Cooling Degree Days 18    
Growing Degree Days 32 (Base 50)    
Moisture  
Dew Point 71 °F    
Average Humidity 69    
Maximum Humidity 78    
Minimum Humidity 53    
Precipitation  
Precipitation 0.00 in 0.00 in - ()
Sea Level Pressure  
Sea Level Pressure 29.78 in    
Wind  
Wind Speed 7 mph ()    
Max Wind Speed 17 mph    
Max Gust Speed -    
Visibility 6.2 miles    
Events      
Averages and records for this station are not official NWS values.
T = Trace of Precipitation, MM = Missing Value Source: Averaged Metar Reports

Daily Weather History Graph

Daily Weather History Graph

Search for Another Location

Airport or City:

Trip Planner

Search our weather history database for the weather conditions in past years. The results will help you decide how hot, cold, wet, or windy it might be!

Date:

Astronomy

Aug. 13, 2013 Rise Set
Actual Time 5:24 AM EET 6:45 PM EET
Civil Twilight 4:59 AM EET 7:10 PM EET
Nautical Twilight 4:28 AM EET 7:41 PM EET
Astronomical Twilight 3:56 AM EET 8:12 PM EET
Moon 11:28 AM EET (8/13) 10:36 PM EET (8/13)
Length of Visible Light 14h 11m
Length of Day
13h 20m
Waxing Crescent, 39% of the Moon is Illuminated
Aug 13
Waxing Crescent
Aug 14
First Quarter
Aug 21
Full
Aug 28
Last Quarter
Sep 5
New

Hourly Weather History & Observations

Time (EET) Temp. Heat Index Dew Point Humidity Pressure Visibility Wind Dir Wind Speed Gust Speed Precip Events Conditions
12:00 AM 78.8 °F - 69.8 °F 74% 29.80 in 6.2 mi North 6.9 mph - N/A   Scattered Clouds
1:00 AM 77.0 °F - 69.8 °F 78% 29.77 in 6.2 mi North 4.6 mph - N/A   Scattered Clouds
2:00 AM 78 °F - 70 °F 69% 29.78 in 6 mi North 5.8 mph - -   Partly Cloudy
2:00 AM 78.8 °F - 69.8 °F 74% 29.77 in 6.2 mi North 5.8 mph - N/A   Scattered Clouds
3:00 AM 77.0 °F - 69.8 °F 78% 29.77 in 6.2 mi North 3.5 mph - N/A   Scattered Clouds
4:00 AM 77.0 °F - 69.8 °F 78% 29.77 in 6.2 mi NNW 3.5 mph - N/A   Scattered Clouds
5:00 AM 77.0 °F - 69.8 °F 78% 29.77 in 6.2 mi NW 3.5 mph - N/A   Scattered Clouds
6:00 AM 78.8 °F - 69.8 °F 74% 29.77 in 6.2 mi WNW 3.5 mph - N/A   Scattered Clouds
7:00 AM 80.6 °F 84.6 °F 71.6 °F 74% 29.77 in 6.2 mi NW 5.8 mph - N/A   Scattered Clouds
8:00 AM 83 °F - 72 °F 62% 29.79 in 6 mi WNW 6.9 mph - -   Partly Cloudy
8:00 AM 82.4 °F 87.2 °F 71.6 °F 70% 29.80 in 6.2 mi WNW 6.9 mph - N/A   Scattered Clouds
9:00 AM 84.2 °F 90.9 °F 73.4 °F 70% 29.80 in 6.2 mi NW 9.2 mph - N/A   Scattered Clouds
10:00 AM 84.2 °F 88.4 °F 69.8 °F 62% 29.80 in 6.2 mi NW 11.5 mph - N/A   Scattered Clouds
11:00 AM 86.0 °F 91.8 °F 71.6 °F 62% 29.80 in 6.2 mi NW 12.7 mph - N/A   Scattered Clouds
12:00 PM 86.0 °F 91.8 °F 71.6 °F 62% 29.80 in 6.2 mi NW 9.2 mph - N/A   Scattered Clouds
1:00 PM 86.0 °F 91.8 °F 71.6 °F 62% 29.80 in 6.2 mi NNW 13.8 mph - N/A   Mostly Cloudy
2:00 PM 87 °F - 72 °F 53% 29.80 in 6 mi NW 15.0 mph - -   Mostly Cloudy
2:00 PM 87.8 °F 93.8 °F 71.6 °F 58% 29.80 in 6.2 mi NW 15.0 mph - N/A   Mostly Cloudy
3:00 PM 87.8 °F 95.6 °F 73.4 °F 62% 29.77 in 6.2 mi NW 15.0 mph - N/A   Mostly Cloudy
4:00 PM 86.0 °F 93.4 °F 73.4 °F 66% 29.77 in 6.2 mi North 17.3 mph - N/A   Mostly Cloudy
5:00 PM 84.2 °F 89.6 °F 71.6 °F 66% 29.77 in 6.2 mi NNW 13.8 mph - N/A   Mostly Cloudy
6:00 PM 82.4 °F 85.4 °F 68.0 °F 62% 29.77 in 6.2 mi North 13.8 mph - N/A   Scattered Clouds
7:00 PM 80.6 °F 84.6 °F 71.6 °F 74% 29.77 in 6.2 mi NNW 11.5 mph - N/A   Scattered Clouds
8:00 PM 81 °F - 70 °F 63% 29.78 in 6 mi North 11.5 mph - -   Partly Cloudy
8:00 PM 80.6 °F 83.9 °F 69.8 °F 70% 29.77 in 6.2 mi North 11.5 mph - N/A   Scattered Clouds
9:00 PM 80.6 °F 84.6 °F 71.6 °F 74% 29.77 in 6.2 mi NW 11.5 mph - N/A   Scattered Clouds
10:00 PM 80.6 °F 84.6 °F 71.6 °F 74% 29.77 in 6.2 mi NNW 9.2 mph - N/A   Scattered Clouds
11:00 PM 78.8 °F - 71.6 °F 78% 29.77 in 6.2 mi NW 10.4 mph - N/A   Scattered Clouds